Location: Ciula Mare
(45.6000°N, 22.8167°E)
Time: 11:40:56
(UTC+00:00)

Cosmos 1536 Rocket - Pass Details

Date: 03 February 2023
Orbit: 605 x 630 km, 82.5° (Epoch: 20 March)

Event Time Altitude Azimuth Distance (km) Brightness Sun altitude
Rises 16:39:57 0° 201° (SSW) 2,846 7.5 -11.2°
Reaches altitude 10° 16:42:12 10° 207° (SSW) 1,948 6.7 -11.6°
Maximum altitude 16:46:23 49° 282° (WNW) 784 4.5 -12.3°
Drops below altitude 10° 16:50:37 10° 359° (N) 1,971 6.1 -13.1°
Sets 16:52:55 0° 4° (N) 2,883 6.8 -13.5°
